Time,TemperatureF,DewpointF,PressureIn,WindDirection,WindDirectionDegrees,WindSpeedMPH,WindSpeedGustMPH,Humidity,HourlyPrecipIn,Conditions,Clouds,dailyrainin,SoftwareType,DateUTC
2013-01-19 00:00:00,26.6,13.8,30.37,South,186,1.0,3.0,58,0.00,,CLR,0.00,VWS V14.01,2013-01-19 05:00:00,
2013-01-19 00:01:00,26.6,13.8,30.37,SSW,205,3.0,3.0,58,0.00,,CLR,0.00,VWS V14.01,2013-01-19 05:01:00,
2013-01-19 00:02:00,26.6,13.8,30.37,South,183,3.0,3.0,58,0.00,,CLR,0.00,VWS V14.01,2013-01-19 05:02:00,
2013-01-19 00:03:00,26.7,13.9,30.37,SW,234,5.0,13.0,58,0.00,,CLR,0.00,VWS V14.01,2013-01-19 05:03:00,
2013-01-19 00:08:00,26.8,14.0,30.37,SSW,198,3.0,10.0,58,0.00,,CLR,0.00,VWS V14.01,2013-01-19 05:08:00,
2013-01-19 00:13:00,26.9,14.1,30.37,SW,222,3.0,7.0,58,0.00,,CLR,0.00,VWS V14.01,2013-01-19 05:13:00,
2013-01-19 00:18:00,26.9,14.1,30.37,South,176,3.0,10.0,58,0.00,,CLR,0.00,VWS V14.01,2013-01-19 05:18:00,
2013-01-19 00:23:00,26.9,14.1,30.37,South,181,3.0,7.0,58,0.00,,CLR,0.00,VWS V14.01,2013-01-19 05:23:00,
2013-01-19 00:28:00,26.8,14.4,30.37,WSW,242,3.0,4.0,59,0.00,,CLR,0.00,VWS V14.01,2013-01-19 05:28:00,
2013-01-19 00:33:00,26.9,14.1,30.37,WSW,248,5.0,8.0,58,0.00,,CLR,0.00,VWS V14.01,2013-01-19 05:33:00,
2013-01-19 00:38:00,26.9,14.5,30.37,SW,214,1.0,7.0,59,0.00,,CLR,0.00,VWS V14.01,2013-01-19 05:38:00,
2013-01-19 00:43:00,26.9,14.5,30.36,SSW,210,2.0,10.0,59,0.00,,CLR,0.00,VWS V14.01,2013-01-19 05:43:00,
2013-01-19 00:49:00,27.0,14.6,30.36,SSE,157,3.0,6.0,59,0.00,,CLR,0.00,VWS V14.01,2013-01-19 05:49:00,
2013-01-19 00:54:00,27.1,14.7,30.36,SW,232,2.0,8.0,59,0.00,,CLR,0.00,VWS V14.01,2013-01-19 05:54:00,
2013-01-19 00:59:00,27.0,14.6,30.36,SSE,157,1.0,7.0,59,0.00,,CLR,0.00,VWS V14.01,2013-01-19 05:59:00,
2013-01-19 01:04:00,27.0,15.0,30.36,SSW,200,1.0,7.0,60,0.00,,CLR,0.00,VWS V14.01,2013-01-19 06:04:00,
2013-01-19 01:09:00,26.8,14.8,30.36,South,181,4.0,6.0,60,0.00,,CLR,0.00,VWS V14.01,2013-01-19 06:09:00,
2013-01-19 01:14:00,26.8,14.8,30.35,SE,131,2.0,4.0,60,0.00,,CLR,0.00,VWS V14.01,2013-01-19 06:14:00,
2013-01-19 01:19:00,26.7,14.7,30.36,SSW,195,1.0,5.0,60,0.00,,CLR,0.00,VWS V14.01,2013-01-19 06:19:00,
2013-01-19 01:24:00,26.7,15.1,30.35,SW,225,0.0,1.0,61,0.00,,CLR,0.00,VWS V14.01,2013-01-19 06:24:00,
2013-01-19 01:29:00,26.6,15.0,30.35,SSE,148,1.0,2.0,61,0.00,,CLR,0.00,VWS V14.01,2013-01-19 06:29:00,
2013-01-19 01:34:00,26.6,15.4,30.35,SSE,150,2.0,3.0,62,0.00,,CLR,0.00,VWS V14.01,2013-01-19 06:34:00,
2013-01-19 01:39:00,26.5,15.3,30.35,SSE,160,1.0,4.0,62,0.00,,CLR,0.00,VWS V14.01,2013-01-19 06:39:00,
2013-01-19 01:44:00,26.5,15.3,30.35,SSE,149,1.0,3.0,62,0.00,,CLR,0.00,VWS V14.01,2013-01-19 06:44:00,
2013-01-19 01:49:00,26.6,15.4,30.34,SSE,156,1.0,4.0,62,0.00,,CLR,0.00,VWS V14.01,2013-01-19 06:49:00,
2013-01-19 01:54:00,26.6,15.7,30.34,SE,142,0.0,4.0,63,0.00,,CLR,0.00,VWS V14.01,2013-01-19 06:54:00,
2013-01-19 01:59:00,26.5,15.6,30.35,SE,141,0.0,2.0,63,0.00,,CLR,0.00,VWS V14.01,2013-01-19 06:59:00,
2013-01-19 02:04:00,26.4,15.9,30.35,SE,146,0.0,3.0,64,0.00,,CLR,0.00,VWS V14.01,2013-01-19 07:04:00,
2013-01-19 02:10:00,26.4,15.9,30.34,SE,146,0.0,4.0,64,0.00,,CLR,0.00,VWS V14.01,2013-01-19 07:10:00,
2013-01-19 02:15:00,26.4,16.2,30.34,SSE,163,0.0,3.0,65,0.00,,CLR,0.00,VWS V14.01,2013-01-19 07:15:00,
2013-01-19 02:20:00,26.5,16.0,30.34,SE,134,1.0,4.0,64,0.00,,CLR,0.00,VWS V14.01,2013-01-19 07:20:00,
2013-01-19 02:25:00,26.5,16.3,30.34,SSE,167,0.0,4.0,65,0.00,,CLR,0.00,VWS V14.01,2013-01-19 07:25:00,
2013-01-19 02:30:00,26.5,16.3,30.34,SE,136,1.0,5.0,65,0.00,,CLR,0.00,VWS V14.01,2013-01-19 07:30:00,
2013-01-19 02:45:00,26.7,16.9,30.33,SSE,154,4.0,5.0,66,0.00,,CLR,0.00,VWS V14.01,2013-01-19 07:45:00,
2013-01-19 02:50:00,26.8,17.0,30.32,SSE,154,3.0,6.0,66,0.00,,CLR,0.00,VWS V14.01,2013-01-19 07:50:00,
2013-01-19 02:55:00,26.9,17.4,30.33,SSE,158,4.0,7.0,67,0.00,,CLR,0.00,VWS V14.01,2013-01-19 07:55:00,
2013-01-19 03:00:00,26.9,17.4,30.32,SE,138,2.0,8.0,67,0.00,,CLR,0.00,VWS V14.01,2013-01-19 08:00:00,
2013-01-19 03:05:00,27.0,17.9,30.32,SSE,153,6.0,7.0,68,0.00,,CLR,0.00,VWS V14.01,2013-01-19 08:05:00,
2013-01-19 03:10:00,27.1,18.0,30.32,SSE,159,3.0,8.0,68,0.00,,CLR,0.00,VWS V14.01,2013-01-19 08:10:00,
2013-01-19 03:15:00,27.1,17.6,30.32,SSE,155,3.0,9.0,67,0.00,,CLR,0.00,VWS V14.01,2013-01-19 08:15:00,
2013-01-19 03:20:00,27.0,17.9,30.32,SSE,147,2.0,6.0,68,0.00,,CLR,0.00,VWS V14.01,2013-01-19 08:20:00,
2013-01-19 03:25:00,27.1,18.0,30.32,SE,139,2.0,6.0,68,0.00,,CLR,0.00,VWS V14.01,2013-01-19 08:25:00,
2013-01-19 03:30:00,27.0,18.2,30.32,ESE,118,1.0,4.0,69,0.00,,CLR,0.00,VWS V14.01,2013-01-19 08:30:00,
2013-01-19 03:35:00,27.1,18.6,30.32,South,169,1.0,5.0,70,0.00,,CLR,0.00,VWS V14.01,2013-01-19 08:35:00,
2013-01-19 03:40:00,27.2,18.7,30.32,SSE,148,2.0,6.0,70,0.00,,CLR,0.00,VWS V14.01,2013-01-19 08:40:00,
2013-01-19 03:45:00,27.1,18.6,30.31,SW,219,3.0,5.0,70,0.00,,CLR,0.00,VWS V14.01,2013-01-19 08:45:00,
2013-01-19 03:50:00,27.2,19.1,30.31,SSE,149,3.0,8.0,71,0.00,,CLR,0.00,VWS V14.01,2013-01-19 08:50:00,
2013-01-19 03:55:00,27.4,19.2,30.31,SSE,147,3.0,7.0,71,0.00,,CLR,0.00,VWS V14.01,2013-01-19 08:55:00,
2013-01-19 04:00:00,27.5,19.7,30.31,WSW,242,8.0,8.0,72,0.00,,CLR,0.00,VWS V14.01,2013-01-19 09:00:00,
2013-01-19 04:05:00,27.7,19.9,30.31,SE,136,5.0,8.0,72,0.00,,FEW110,0.00,VWS V14.01,2013-01-19 09:05:00,
2013-01-19 04:10:00,27.6,19.8,30.30,South,187,5.0,8.0,72,0.00,,FEW110,0.00,VWS V14.01,2013-01-19 09:10:00,
2013-01-19 04:15:00,27.7,20.2,30.30,South,186,3.0,8.0,73,0.00,,FEW110,0.00,VWS V14.01,2013-01-19 09:15:00,
2013-01-19 04:20:00,27.7,20.2,30.30,SE,145,0.0,6.0,73,0.00,,FEW110,0.00,VWS V14.01,2013-01-19 09:20:00,
2013-01-19 04:25:00,27.7,20.2,30.30,SSE,150,4.0,9.0,73,0.00,,FEW110,0.00,VWS V14.01,2013-01-19 09:25:00,
2013-01-19 04:30:00,27.7,20.2,30.30,SSE,150,4.0,4.0,73,0.00,,FEW110,0.00,VWS V14.01,2013-01-19 09:30:00,
2013-01-19 04:35:00,27.7,20.2,30.30,SSE,150,4.0,4.0,73,0.00,,FEW110,0.00,VWS V14.01,2013-01-19 09:35:00,
2013-01-19 04:40:00,27.7,20.2,30.30,SSE,150,4.0,4.0,73,0.00,,FEW110,0.00,VWS V14.01,2013-01-19 09:40:00,
2013-01-19 04:45:00,27.7,20.2,30.30,SSE,150,4.0,4.0,73,0.00,,FEW110,0.00,VWS V14.01,2013-01-19 09:45:00,
2013-01-19 04:50:00,27.7,20.2,30.30,SSE,150,4.0,4.0,73,0.00,,FEW110,0.00,VWS V14.01,2013-01-19 09:50:00,
2013-01-19 04:55:00,27.7,20.2,30.30,SSE,150,4.0,4.0,73,0.00,,FEW110,0.00,VWS V14.01,2013-01-19 09:55:00,
2013-01-19 05:00:00,27.7,20.2,30.30,SSE,150,4.0,4.0,73,0.00,,FEW110,0.00,VWS V14.01,2013-01-19 10:00:00,
2013-01-19 05:05:00,27.7,20.2,30.29,SSE,150,4.0,4.0,73,0.00,,OVC120,0.00,VWS V14.01,2013-01-19 10:05:00,
2013-01-19 05:10:00,27.7,20.2,30.28,SSE,150,4.0,4.0,73,0.00,,OVC120,0.00,VWS V14.01,2013-01-19 10:10:00,
2013-01-19 05:15:00,27.7,20.2,30.29,SSE,150,4.0,4.0,73,0.00,,OVC120,0.00,VWS V14.01,2013-01-19 10:15:00,
2013-01-19 05:20:00,27.7,20.2,30.29,SSE,150,4.0,4.0,73,0.00,,OVC120,0.00,VWS V14.01,2013-01-19 10:20:00,
2013-01-19 05:25:00,27.7,20.2,30.29,SSE,150,4.0,4.0,73,0.00,,OVC120,0.00,VWS V14.01,2013-01-19 10:25:00,
2013-01-19 05:30:00,27.7,20.2,30.28,SSE,150,4.0,4.0,73,0.00,,OVC120,0.00,VWS V14.01,2013-01-19 10:30:00,
2013-01-19 05:35:00,27.7,20.2,30.28,SSE,150,4.0,4.0,73,0.00,,OVC120,0.00,VWS V14.01,2013-01-19 10:35:00,
2013-01-19 05:40:00,27.7,20.2,30.28,SSE,150,4.0,4.0,73,0.00,,OVC120,0.00,VWS V14.01,2013-01-19 10:40:00,
2013-01-19 05:45:00,27.7,20.2,30.28,SSE,150,4.0,4.0,73,0.00,,OVC120,0.00,VWS V14.01,2013-01-19 10:45:00,
2013-01-19 05:50:00,27.7,20.2,30.28,SSE,150,4.0,4.0,73,0.00,,OVC120,0.00,VWS V14.01,2013-01-19 10:50:00,
2013-01-19 05:55:00,27.7,20.2,30.28,SSE,150,4.0,4.0,73,0.00,,OVC120,0.00,VWS V14.01,2013-01-19 10:55:00,
2013-01-19 06:00:00,27.7,20.2,30.28,SSE,150,4.0,4.0,73,0.00,,OVC120,0.00,VWS V14.01,2013-01-19 11:00:00,
2013-01-19 06:05:00,27.7,20.2,30.28,SSE,150,4.0,4.0,73,0.00,,FEW120,0.00,VWS V14.01,2013-01-19 11:05:00,
2013-01-19 06:10:00,27.7,20.2,30.28,SSE,150,4.0,4.0,73,0.00,,FEW120,0.00,VWS V14.01,2013-01-19 11:10:00,
2013-01-19 07:47:00,28.2,22.8,30.27,South,179,0.0,4.0,80,0.00,,FEW120,0.00,VWS V14.01,2013-01-19 12:47:00,
2013-01-19 07:48:00,28.2,22.8,30.27,South,180,0.0,4.0,80,0.00,,FEW120,0.00,VWS V14.01,2013-01-19 12:48:00,
2013-01-19 07:49:00,28.2,22.8,30.27,SW,225,0.0,4.0,80,0.00,,FEW120,0.00,VWS V14.01,2013-01-19 12:49:00,
2013-01-19 07:54:00,28.6,23.2,30.27,SE,139,0.0,2.0,80,0.00,,FEW120,0.00,VWS V14.01,2013-01-19 12:54:00,
2013-01-19 07:59:00,29.4,23.7,30.27,SSE,167,3.0,5.0,79,0.00,,FEW120,0.00,VWS V14.01,2013-01-19 12:59:00,
2013-01-19 08:04:00,30.0,24.0,30.27,SSE,148,0.0,4.0,78,0.00,,CLR,0.00,VWS V14.01,2013-01-19 13:04:00,
2013-01-19 08:09:00,30.4,24.1,30.27,SSE,155,3.0,3.0,77,0.00,,CLR,0.00,VWS V14.01,2013-01-19 13:09:00,
2013-01-19 08:14:00,30.7,24.4,30.27,SE,141,6.0,6.0,77,0.00,,CLR,0.00,VWS V14.01,2013-01-19 13:14:00,
2013-01-19 08:19:00,31.1,24.8,30.28,SE,134,4.0,4.0,77,0.00,,CLR,0.00,VWS V14.01,2013-01-19 13:19:00,
2013-01-19 08:24:00,31.3,24.6,30.27,SE,141,4.0,6.0,76,0.00,,CLR,0.00,VWS V14.01,2013-01-19 13:24:00,
2013-01-19 08:29:00,31.4,24.4,30.27,SE,128,3.0,6.0,75,0.00,,CLR,0.00,VWS V14.01,2013-01-19 13:29:00,
2013-01-19 08:35:00,31.6,24.6,30.27,SSE,153,5.0,7.0,75,0.00,,CLR,0.00,VWS V14.01,2013-01-19 13:35:00,
2013-01-19 08:40:00,31.9,24.9,30.27,SSE,153,3.0,6.0,75,0.00,,CLR,0.00,VWS V14.01,2013-01-19 13:40:00,
2013-01-19 08:45:00,32.0,25.0,30.28,South,191,0.0,7.0,75,0.00,,CLR,0.00,VWS V14.01,2013-01-19 13:45:00,
2013-01-19 08:50:00,32.3,25.0,30.28,SW,215,3.0,7.0,74,0.00,,CLR,0.00,VWS V14.01,2013-01-19 13:50:00,
2013-01-19 08:55:00,32.5,25.1,30.28,SW,222,2.0,7.0,74,0.00,,CLR,0.00,VWS V14.01,2013-01-19 13:55:00,
2013-01-19 09:00:00,32.7,25.3,30.28,SSW,210,1.0,5.0,74,0.00,,CLR,0.00,VWS V14.01,2013-01-19 14:00:00,
2013-01-19 09:05:00,32.9,25.2,30.28,SSW,203,4.0,4.0,73,0.00,,CLR,0.00,VWS V14.01,2013-01-19 14:05:00,
2013-01-19 09:10:00,33.1,25.4,30.28,SW,215,1.0,2.0,73,0.00,,CLR,0.00,VWS V14.01,2013-01-19 14:10:00,
2013-01-19 09:15:00,33.2,25.5,30.28,SSE,167,3.0,3.0,73,0.00,,CLR,0.00,VWS V14.01,2013-01-19 14:15:00,
2013-01-19 09:20:00,33.5,25.5,30.28,SSE,152,1.0,2.0,72,0.00,,CLR,0.00,VWS V14.01,2013-01-19 14:20:00,
2013-01-19 09:25:00,33.6,25.5,30.28,SSE,150,3.0,5.0,72,0.00,,CLR,0.00,VWS V14.01,2013-01-19 14:25:00,
2013-01-19 09:30:00,33.6,25.5,30.27,SE,142,1.0,4.0,72,0.00,,CLR,0.00,VWS V14.01,2013-01-19 14:30:00,
2013-01-19 09:35:00,33.8,25.7,30.27,SSW,205,2.0,3.0,72,0.00,,CLR,0.00,VWS V14.01,2013-01-19 14:35:00,
2013-01-19 09:40:00,34.2,25.8,30.27,South,171,6.0,8.0,71,0.00,,CLR,0.00,VWS V14.01,2013-01-19 14:40:00,
2013-01-19 09:45:00,34.5,26.1,30.27,SSE,158,7.0,7.0,71,0.00,,CLR,0.00,VWS V14.01,2013-01-19 14:45:00,
2013-01-19 09:50:00,34.7,26.3,30.27,South,173,4.0,7.0,71,0.00,,CLR,0.00,VWS V14.01,2013-01-19 14:50:00,
2013-01-19 09:55:00,35.0,26.6,30.27,SW,236,4.0,5.0,71,0.00,,CLR,0.00,VWS V14.01,2013-01-19 14:55:00,
2013-01-19 10:00:00,35.5,26.7,30.27,SSE,153,7.0,7.0,70,0.00,,CLR,0.00,VWS V14.01,2013-01-19 15:00:00,
2013-01-19 10:05:00,35.5,26.7,30.27,SW,236,1.0,6.0,70,0.00,,CLR,0.00,VWS V14.01,2013-01-19 15:05:00,
2013-01-19 10:10:00,35.9,26.7,30.27,South,173,7.0,9.0,69,0.00,,CLR,0.00,VWS V14.01,2013-01-19 15:10:00,
2013-01-19 10:15:00,36.0,26.5,30.27,SW,233,4.0,12.0,68,0.00,,CLR,0.00,VWS V14.01,2013-01-19 15:15:00,
2013-01-19 10:21:00,36.3,26.8,30.26,South,180,3.0,4.0,68,0.00,,CLR,0.00,VWS V14.01,2013-01-19 15:21:00,
2013-01-19 10:26:00,36.8,26.9,30.26,SSE,147,3.0,9.0,67,0.00,,CLR,0.00,VWS V14.01,2013-01-19 15:26:00,
2013-01-19 10:31:00,37.1,26.8,30.26,SW,222,4.0,8.0,66,0.00,,CLR,0.00,VWS V14.01,2013-01-19 15:31:00,
2013-01-19 10:36:00,37.2,27.3,30.25,SSE,155,3.0,8.0,67,0.00,,CLR,0.00,VWS V14.01,2013-01-19 15:36:00,
2013-01-19 10:41:00,37.4,27.1,30.25,SSW,206,4.0,8.0,66,0.00,,CLR,0.00,VWS V14.01,2013-01-19 15:41:00,
2013-01-19 10:46:00,37.8,27.1,30.25,East,101,5.0,10.0,65,0.00,,CLR,0.00,VWS V14.01,2013-01-19 15:46:00,
2013-01-19 10:51:00,38.1,27.4,30.24,SSE,158,7.0,7.0,65,0.00,,CLR,0.00,VWS V14.01,2013-01-19 15:51:00,
2013-01-19 10:56:00,38.5,27.8,30.24,SE,124,7.0,8.0,65,0.00,,CLR,0.00,VWS V14.01,2013-01-19 15:56:00,
2013-01-19 11:01:00,38.9,28.1,30.24,SSE,163,2.0,8.0,65,0.00,,CLR,0.00,VWS V14.01,2013-01-19 16:01:00,
2013-01-19 11:07:00,39.4,28.2,30.23,South,187,3.0,9.0,64,0.00,,CLR,0.00,VWS V14.01,2013-01-19 16:07:00,
2013-01-19 11:12:00,39.7,28.1,30.23,WSW,255,8.0,10.0,63,0.00,,CLR,0.00,VWS V14.01,2013-01-19 16:12:00,
2013-01-19 11:17:00,39.7,28.1,30.22,SSE,156,4.0,7.0,63,0.00,,CLR,0.00,VWS V14.01,2013-01-19 16:17:00,
2013-01-19 11:22:00,40.1,27.8,30.22,SSW,200,6.0,10.0,61,0.00,,CLR,0.00,VWS V14.01,2013-01-19 16:22:00,
2013-01-19 11:27:00,40.4,28.4,30.22,SSW,205,0.0,5.0,62,0.00,,CLR,0.00,VWS V14.01,2013-01-19 16:27:00,
2013-01-19 11:32:00,41.0,29.0,30.21,WSW,257,2.0,5.0,62,0.00,,CLR,0.00,VWS V14.01,2013-01-19 16:32:00,
2013-01-19 11:37:00,41.3,28.9,30.21,SW,221,2.0,12.0,61,0.00,,CLR,0.00,VWS V14.01,2013-01-19 16:37:00,
2013-01-19 11:42:00,41.7,28.4,30.20,SW,215,2.0,7.0,59,0.00,,CLR,0.00,VWS V14.01,2013-01-19 16:42:00,
2013-01-19 11:47:00,41.8,29.0,30.20,SSE,147,4.0,13.0,60,0.00,,CLR,0.00,VWS V14.01,2013-01-19 16:47:00,
2013-01-19 11:52:00,41.7,28.9,30.19,SSE,159,4.0,11.0,60,0.00,,CLR,0.00,VWS V14.01,2013-01-19 16:52:00,
2013-01-19 11:57:00,42.2,28.9,30.19,SSW,200,2.0,8.0,59,0.00,,CLR,0.00,VWS V14.01,2013-01-19 16:57:00,
2013-01-19 12:02:00,42.6,29.3,30.18,WSW,255,4.0,7.0,59,0.00,,CLR,0.00,VWS V14.01,2013-01-19 17:02:00,
2013-01-19 12:07:00,42.8,29.1,30.18,SSE,167,4.0,9.0,58,0.00,,CLR,0.00,VWS V14.01,2013-01-19 17:07:00,
2013-01-19 12:12:00,43.2,29.4,30.17,SW,235,0.0,7.0,58,0.00,,CLR,0.00,VWS V14.01,2013-01-19 17:12:00,
2013-01-19 12:17:00,43.3,29.5,30.17,SW,225,5.0,11.0,58,0.00,,CLR,0.00,VWS V14.01,2013-01-19 17:17:00,
2013-01-19 12:22:00,43.6,29.4,30.17,SE,146,6.0,11.0,57,0.00,,CLR,0.00,VWS V14.01,2013-01-19 17:22:00,
2013-01-19 12:28:00,43.7,29.0,30.16,SE,145,7.0,15.0,56,0.00,,CLR,0.00,VWS V14.01,2013-01-19 17:28:00,
2013-01-19 12:33:00,44.1,29.4,30.15,SSE,168,6.0,13.0,56,0.00,,CLR,0.00,VWS V14.01,2013-01-19 17:33:00,
2013-01-19 12:39:00,44.5,29.8,30.15,SSW,207,7.0,14.0,56,0.00,,CLR,0.00,VWS V14.01,2013-01-19 17:39:00,
2013-01-19 12:44:00,44.9,30.2,30.15,South,173,4.0,11.0,56,0.00,,CLR,0.00,VWS V14.01,2013-01-19 17:44:00,
2013-01-19 12:49:00,45.5,30.3,30.14,SSE,150,12.0,12.0,55,0.00,,CLR,0.00,VWS V14.01,2013-01-19 17:49:00,
2013-01-19 12:54:00,45.9,30.2,30.14,SSW,204,4.0,10.0,54,0.00,,CLR,0.00,VWS V14.01,2013-01-19 17:54:00,
2013-01-19 12:59:00,46.6,30.9,30.14,SW,221,7.0,9.0,54,0.00,,CLR,0.00,VWS V14.01,2013-01-19 17:59:00,
2013-01-19 13:05:00,46.5,29.8,30.13,SSW,205,4.0,11.0,52,0.00,,CLR,0.00,VWS V14.01,2013-01-19 18:05:00,
2013-01-19 13:10:00,46.6,29.9,30.13,SSW,212,8.0,8.0,52,0.00,,CLR,0.00,VWS V14.01,2013-01-19 18:10:00,
2013-01-19 13:15:00,46.7,30.0,30.12,WSW,242,6.0,7.0,52,0.00,,CLR,0.00,VWS V14.01,2013-01-19 18:15:00,
2013-01-19 13:20:00,46.8,30.6,30.12,SW,231,1.0,2.0,53,0.00,,CLR,0.00,VWS V14.01,2013-01-19 18:20:00,
2013-01-19 13:25:00,46.9,30.7,30.12,SSE,153,5.0,7.0,53,0.00,,CLR,0.00,VWS V14.01,2013-01-19 18:25:00,
2013-01-19 13:30:00,46.8,30.1,30.12,SW,231,6.0,7.0,52,0.00,,CLR,0.00,VWS V14.01,2013-01-19 18:30:00,
2013-01-19 13:37:00,46.9,29.7,30.11,SSW,200,4.0,7.0,51,0.00,,CLR,0.00,VWS V14.01,2013-01-19 18:37:00,
2013-01-19 13:42:00,47.2,30.5,30.11,SSW,207,1.0,4.0,52,0.00,,CLR,0.00,VWS V14.01,2013-01-19 18:42:00,
2013-01-19 13:47:00,47.6,29.4,30.11,West,264,9.0,11.0,49,0.00,,CLR,0.00,VWS V14.01,2013-01-19 18:47:00,
2013-01-19 13:52:00,48.4,29.6,30.10,South,191,6.0,8.0,48,0.00,,CLR,0.00,VWS V14.01,2013-01-19 18:52:00,
2013-01-19 13:57:00,49.4,28.4,30.10,SW,217,5.0,13.0,44,0.00,,CLR,0.00,VWS V14.01,2013-01-19 18:57:00,
2013-01-19 14:02:00,50.1,29.6,30.10,South,173,3.0,10.0,45,0.00,,CLR,0.00,VWS V14.01,2013-01-19 19:02:00,
2013-01-19 14:07:00,50.4,28.8,30.10,SW,236,10.0,12.0,43,0.00,,CLR,0.00,VWS V14.01,2013-01-19 19:07:00,
2013-01-19 14:13:00,50.2,28.6,30.10,SW,231,9.0,13.0,43,0.00,,CLR,0.00,VWS V14.01,2013-01-19 19:13:00,
2013-01-19 14:18:00,50.0,29.0,30.09,South,177,4.0,11.0,44,0.00,,CLR,0.00,VWS V14.01,2013-01-19 19:18:00,
2013-01-19 14:23:00,49.7,29.8,30.09,SSW,193,1.0,7.0,46,0.00,,CLR,0.00,VWS V14.01,2013-01-19 19:23:00,
2013-01-19 14:28:00,49.6,29.1,30.09,South,181,3.0,7.0,45,0.00,,CLR,0.00,VWS V14.01,2013-01-19 19:28:00,
2013-01-19 14:33:00,49.5,29.1,30.08,SW,218,4.0,7.0,45,0.00,,CLR,0.00,VWS V14.01,2013-01-19 19:33:00,
2013-01-19 14:38:00,49.6,29.1,30.08,SW,228,2.0,5.0,45,0.00,,CLR,0.00,VWS V14.01,2013-01-19 19:38:00,
2013-01-19 14:43:00,49.7,29.8,30.08,SW,219,4.0,9.0,46,0.00,,CLR,0.00,VWS V14.01,2013-01-19 19:43:00,
2013-01-19 14:49:00,49.9,29.4,30.08,South,190,3.0,6.0,45,0.00,,CLR,0.00,VWS V14.01,2013-01-19 19:49:00,
2013-01-19 14:54:00,50.0,29.0,30.07,SSE,163,8.0,12.0,44,0.00,,CLR,0.00,VWS V14.01,2013-01-19 19:54:00,
2013-01-19 14:59:00,50.1,30.7,30.07,SE,145,4.0,7.0,47,0.00,,CLR,0.00,VWS V14.01,2013-01-19 19:59:00,
2013-01-19 15:04:00,50.2,29.7,30.07,WSW,245,2.0,6.0,45,0.00,,CLR,0.00,VWS V14.01,2013-01-19 20:04:00,
2013-01-19 15:09:00,50.3,29.8,30.07,West,266,5.0,8.0,45,0.00,,CLR,0.00,VWS V14.01,2013-01-19 20:09:00,
2013-01-19 15:14:00,50.5,29.4,30.06,South,179,5.0,8.0,44,0.00,,CLR,0.00,VWS V14.01,2013-01-19 20:14:00,
2013-01-19 15:19:00,50.7,28.5,30.06,SW,218,7.0,9.0,42,0.00,,CLR,0.00,VWS V14.01,2013-01-19 20:19:00,
2013-01-19 15:24:00,50.9,29.8,30.06,SSE,148,6.0,8.0,44,0.00,,CLR,0.00,VWS V14.01,2013-01-19 20:24:00,
2013-01-19 15:30:00,51.2,30.6,30.06,SSE,150,5.0,8.0,45,0.00,,CLR,0.00,VWS V14.01,2013-01-19 20:30:00,
2013-01-19 15:35:00,51.5,30.3,30.06,South,174,3.0,7.0,44,0.00,,CLR,0.00,VWS V14.01,2013-01-19 20:35:00,
2013-01-19 15:40:00,51.5,30.3,30.05,SSE,157,4.0,7.0,44,0.00,,CLR,0.00,VWS V14.01,2013-01-19 20:40:00,
2013-01-19 15:45:00,51.8,30.6,30.05,SSW,205,6.0,8.0,44,0.00,,CLR,0.00,VWS V14.01,2013-01-19 20:45:00,
2013-01-19 15:50:00,51.7,29.9,30.05,SSE,165,5.0,8.0,43,0.00,,CLR,0.00,VWS V14.01,2013-01-19 20:50:00,
2013-01-19 15:55:00,51.4,30.8,30.05,SE,138,6.0,8.0,45,0.00,,CLR,0.00,VWS V14.01,2013-01-19 20:55:00,
2013-01-19 16:00:00,51.3,29.6,30.05,SE,141,6.0,10.0,43,0.00,,CLR,0.00,VWS V14.01,2013-01-19 21:00:00,
2013-01-19 16:05:00,51.0,29.3,30.04,SSE,167,10.0,13.0,43,0.00,,CLR,0.00,VWS V14.01,2013-01-19 21:05:00,
2013-01-19 16:10:00,51.2,30.0,30.04,SW,225,2.0,13.0,44,0.00,,CLR,0.00,VWS V14.01,2013-01-19 21:10:00,
2013-01-19 16:15:00,51.0,29.3,30.04,SE,139,3.0,6.0,43,0.00,,CLR,0.00,VWS V14.01,2013-01-19 21:15:00,
2013-01-19 16:20:00,50.4,30.4,30.03,SSE,147,4.0,6.0,46,0.00,,CLR,0.00,VWS V14.01,2013-01-19 21:20:00,
2013-01-19 16:25:00,50.2,31.3,30.03,SE,141,9.0,9.0,48,0.00,,CLR,0.00,VWS V14.01,2013-01-19 21:25:00,
2013-01-19 16:30:00,49.7,30.8,30.03,SSE,165,9.0,10.0,48,0.00,,CLR,0.00,VWS V14.01,2013-01-19 21:30:00,
2013-01-19 16:36:00,49.5,31.1,30.03,SSE,159,10.0,12.0,49,0.00,,CLR,0.00,VWS V14.01,2013-01-19 21:36:00,
2013-01-19 16:42:00,48.9,31.1,30.03,SSE,166,9.0,14.0,50,0.00,,CLR,0.00,VWS V14.01,2013-01-19 21:42:00,
2013-01-19 16:47:00,48.5,31.7,30.03,SSE,150,10.0,18.0,52,0.00,,CLR,0.00,VWS V14.01,2013-01-19 21:47:00,
2013-01-19 16:53:00,47.5,32.2,30.02,SSE,149,9.0,13.0,55,0.00,,CLR,0.00,VWS V14.01,2013-01-19 21:53:00,
2013-01-19 16:58:00,46.9,31.6,30.02,SE,141,12.0,13.0,55,0.00,,CLR,0.00,VWS V14.01,2013-01-19 21:58:00,
2013-01-19 17:04:00,46.5,31.7,30.02,SE,141,9.0,16.0,56,0.00,,CLR,0.00,VWS V14.01,2013-01-19 22:04:00,
2013-01-19 17:09:00,45.9,32.0,30.02,South,181,10.0,11.0,58,0.00,,CLR,0.00,VWS V14.01,2013-01-19 22:09:00,
2013-01-19 17:14:00,45.4,31.9,30.02,SE,143,7.0,12.0,59,0.00,,CLR,0.00,VWS V14.01,2013-01-19 22:14:00,
2013-01-19 17:19:00,45.1,32.1,30.02,SSE,160,7.0,11.0,60,0.00,,CLR,0.00,VWS V14.01,2013-01-19 22:19:00,
2013-01-19 17:24:00,44.6,32.0,30.02,SE,134,9.0,13.0,61,0.00,,CLR,0.00,VWS V14.01,2013-01-19 22:24:00,
2013-01-19 17:29:00,44.1,31.9,30.02,SSE,165,7.0,11.0,62,0.00,,CLR,0.00,VWS V14.01,2013-01-19 22:29:00,
2013-01-19 17:34:00,43.9,32.1,30.02,SE,132,10.0,11.0,63,0.00,,CLR,0.00,VWS V14.01,2013-01-19 22:34:00,
2013-01-19 17:39:00,43.8,32.0,30.02,SE,145,12.0,12.0,63,0.00,,CLR,0.00,VWS V14.01,2013-01-19 22:39:00,
2013-01-19 17:45:00,43.6,31.9,30.02,SSE,160,8.0,12.0,63,0.00,,CLR,0.00,VWS V14.01,2013-01-19 22:45:00,
2013-01-19 17:50:00,43.5,31.8,30.02,SSE,159,9.0,13.0,63,0.00,,CLR,0.00,VWS V14.01,2013-01-19 22:50:00,
2013-01-19 17:55:00,43.3,32.0,30.02,SE,145,12.0,14.0,64,0.00,,CLR,0.00,VWS V14.01,2013-01-19 22:55:00,
2013-01-19 18:00:00,43.0,31.7,30.02,SSE,153,12.0,13.0,64,0.00,,CLR,0.00,VWS V14.01,2013-01-19 23:00:00,
2013-01-19 18:05:00,42.7,31.8,30.02,South,170,5.0,10.0,65,0.00,,CLR,0.00,VWS V14.01,2013-01-19 23:05:00,
2013-01-19 18:10:00,42.5,31.6,30.02,South,173,9.0,10.0,65,0.00,,CLR,0.00,VWS V14.01,2013-01-19 23:10:00,
2013-01-19 18:15:00,42.4,31.5,30.02,SSE,155,7.0,10.0,65,0.00,,CLR,0.00,VWS V14.01,2013-01-19 23:15:00,
2013-01-19 18:20:00,42.2,31.7,30.02,SSE,148,9.0,10.0,66,0.00,,CLR,0.00,VWS V14.01,2013-01-19 23:20:00,
2013-01-19 18:25:00,42.1,31.6,30.02,SE,142,7.0,9.0,66,0.00,,CLR,0.00,VWS V14.01,2013-01-19 23:25:00,
2013-01-19 18:30:00,41.9,31.4,30.01,ESE,120,10.0,11.0,66,0.00,,CLR,0.00,VWS V14.01,2013-01-19 23:30:00,
2013-01-19 18:35:00,41.7,31.6,30.01,SE,143,9.0,11.0,67,0.00,,CLR,0.00,VWS V14.01,2013-01-19 23:35:00,
2013-01-19 18:41:00,41.8,31.3,30.01,SE,145,12.0,16.0,66,0.00,,CLR,0.00,VWS V14.01,2013-01-19 23:41:00,
2013-01-19 18:46:00,41.6,31.5,30.01,SSE,155,9.0,10.0,67,0.00,,CLR,0.00,VWS V14.01,2013-01-19 23:46:00,
2013-01-19 18:51:00,41.6,31.5,30.01,SE,134,10.0,13.0,67,0.00,,CLR,0.00,VWS V14.01,2013-01-19 23:51:00,
2013-01-19 18:56:00,41.5,31.4,30.01,SSE,160,7.0,14.0,67,0.00,,CLR,0.00,VWS V14.01,2013-01-19 23:56:00,
2013-01-19 19:02:00,41.3,31.5,30.00,SSE,150,8.0,13.0,68,0.00,,CLR,0.00,VWS V14.01,2013-01-20 00:02:00,
2013-01-19 19:07:00,41.2,31.8,30.00,SSE,159,11.0,11.0,69,0.00,,CLR,0.00,VWS V14.01,2013-01-20 00:07:00,
2013-01-19 19:12:00,41.1,31.7,30.01,SSE,150,8.0,11.0,69,0.00,,CLR,0.00,VWS V14.01,2013-01-20 00:12:00,
2013-01-19 19:17:00,41.0,31.6,30.00,SE,146,9.0,12.0,69,0.00,,CLR,0.00,VWS V14.01,2013-01-20 00:17:00,
2013-01-19 19:22:00,40.9,31.5,30.00,SSE,156,9.0,13.0,69,0.00,,CLR,0.00,VWS V14.01,2013-01-20 00:22:00,
2013-01-19 19:27:00,40.9,31.5,30.00,SSE,150,10.0,13.0,69,0.00,,CLR,0.00,VWS V14.01,2013-01-20 00:27:00,
2013-01-19 19:33:00,41.0,31.6,30.00,South,174,13.0,14.0,69,0.00,,CLR,0.00,VWS V14.01,2013-01-20 00:33:00,
2013-01-19 19:38:00,41.0,31.3,30.00,SSE,156,12.0,13.0,68,0.00,,CLR,0.00,VWS V14.01,2013-01-20 00:38:00,
2013-01-19 19:43:00,41.1,31.4,30.00,SSE,158,11.0,13.0,68,0.00,,CLR,0.00,VWS V14.01,2013-01-20 00:43:00,
2013-01-19 19:48:00,41.2,31.5,30.00,SSE,149,12.0,12.0,68,0.00,,CLR,0.00,VWS V14.01,2013-01-20 00:48:00,
2013-01-19 19:54:00,41.3,31.5,29.99,SSE,161,10.0,13.0,68,0.00,,CLR,0.00,VWS V14.01,2013-01-20 00:54:00,
2013-01-19 19:59:00,41.3,31.5,29.99,SSE,153,10.0,12.0,68,0.00,,CLR,0.00,VWS V14.01,2013-01-20 00:59:00,
2013-01-19 20:04:00,41.4,31.6,29.99,SSE,161,9.0,14.0,68,0.00,,CLR,0.00,VWS V14.01,2013-01-20 01:04:00,
2013-01-19 20:09:00,41.3,31.5,29.99,SSE,162,8.0,14.0,68,0.00,,CLR,0.00,VWS V14.01,2013-01-20 01:09:00,
2013-01-19 20:14:00,41.2,31.5,29.99,SSE,158,9.0,14.0,68,0.00,,CLR,0.00,VWS V14.01,2013-01-20 01:14:00,
2013-01-19 20:19:00,41.3,31.5,29.99,SSE,160,10.0,14.0,68,0.00,,CLR,0.00,VWS V14.01,2013-01-20 01:19:00,
2013-01-19 20:25:00,41.2,31.5,29.98,SSE,152,11.0,14.0,68,0.00,,CLR,0.00,VWS V14.01,2013-01-20 01:25:00,
2013-01-19 20:30:00,41.3,31.5,29.98,SSE,160,10.0,15.0,68,0.00,,CLR,0.00,VWS V14.01,2013-01-20 01:30:00,
2013-01-19 20:35:00,41.4,31.3,29.98,SE,142,13.0,15.0,67,0.00,,CLR,0.00,VWS V14.01,2013-01-20 01:35:00,
2013-01-19 20:40:00,41.5,31.4,29.98,South,169,10.0,14.0,67,0.00,,CLR,0.00,VWS V14.01,2013-01-20 01:40:00,
2013-01-19 20:45:00,41.5,31.4,29.98,SE,141,11.0,13.0,67,0.00,,CLR,0.00,VWS V14.01,2013-01-20 01:45:00,
2013-01-19 20:50:00,41.6,31.1,29.98,SSE,162,9.0,14.0,66,0.00,,CLR,0.00,VWS V14.01,2013-01-20 01:50:00,
2013-01-19 20:55:00,41.6,31.1,29.97,SSE,152,9.0,9.0,66,0.00,,CLR,0.00,VWS V14.01,2013-01-20 01:55:00,
2013-01-19 21:00:00,41.6,31.1,29.97,SE,146,12.0,13.0,66,0.00,,CLR,0.00,VWS V14.01,2013-01-20 02:00:00,
2013-01-19 21:05:00,41.5,31.0,29.97,South,184,9.0,11.0,66,0.00,,CLR,0.00,VWS V14.01,2013-01-20 02:05:00,
2013-01-19 21:10:00,41.5,31.0,29.97,SE,146,6.0,13.0,66,0.00,,CLR,0.00,VWS V14.01,2013-01-20 02:10:00,
2013-01-19 21:15:00,41.4,30.9,29.96,SSE,150,9.0,10.0,66,0.00,,CLR,0.00,VWS V14.01,2013-01-20 02:15:00,
2013-01-19 21:21:00,41.2,30.7,29.96,SSE,166,6.0,9.0,66,0.00,,CLR,0.00,VWS V14.01,2013-01-20 02:21:00,
2013-01-19 21:26:00,41.1,31.0,29.96,SSE,156,8.0,8.0,67,0.00,,CLR,0.00,VWS V14.01,2013-01-20 02:26:00,
2013-01-19 21:32:00,40.7,30.6,29.96,SSE,147,7.0,9.0,67,0.00,,CLR,0.00,VWS V14.01,2013-01-20 02:32:00,
2013-01-19 21:37:00,40.7,30.2,29.96,SE,139,3.0,7.0,66,0.00,,CLR,0.00,VWS V14.01,2013-01-20 02:37:00,
2013-01-19 21:42:00,40.7,30.2,29.96,SSE,153,4.0,7.0,66,0.00,,CLR,0.00,VWS V14.01,2013-01-20 02:42:00,
2013-01-19 21:47:00,40.3,30.2,29.96,SE,131,4.0,10.0,67,0.00,,CLR,0.00,VWS V14.01,2013-01-20 02:47:00,
2013-01-19 21:52:00,40.1,30.0,29.95,SE,125,5.0,6.0,67,0.00,,CLR,0.00,VWS V14.01,2013-01-20 02:52:00,
2013-01-19 21:57:00,39.9,29.9,29.94,SE,135,5.0,6.0,67,0.00,,CLR,0.00,VWS V14.01,2013-01-20 02:57:00,
2013-01-19 22:02:00,40.0,29.9,29.94,SE,142,7.0,8.0,67,0.00,,CLR,0.00,VWS V14.01,2013-01-20 03:02:00,
2013-01-19 22:07:00,40.0,29.9,29.94,SE,129,3.0,6.0,67,0.00,,CLR,0.00,VWS V14.01,2013-01-20 03:07:00,
2013-01-19 22:12:00,39.7,29.7,29.94,SE,134,5.0,5.0,67,0.00,,CLR,0.00,VWS V14.01,2013-01-20 03:12:00,
2013-01-19 22:18:00,39.9,29.9,29.94,ESE,113,2.0,4.0,67,0.00,,CLR,0.00,VWS V14.01,2013-01-20 03:18:00,
2013-01-19 22:23:00,39.7,29.7,29.94,SE,141,1.0,4.0,67,0.00,,CLR,0.00,VWS V14.01,2013-01-20 03:23:00,
2013-01-19 22:29:00,39.7,29.3,29.94,ESE,108,0.0,1.0,66,0.00,,CLR,0.00,VWS V14.01,2013-01-20 03:29:00,
2013-01-19 22:34:00,39.5,29.5,29.94,South,174,0.0,1.0,67,0.00,,CLR,0.00,VWS V14.01,2013-01-20 03:34:00,
2013-01-19 22:39:00,39.7,29.3,29.94,SE,146,0.0,2.0,66,0.00,,CLR,0.00,VWS V14.01,2013-01-20 03:39:00,
2013-01-19 22:44:00,39.9,29.5,29.94,South,174,0.0,3.0,66,0.00,,CLR,0.00,VWS V14.01,2013-01-20 03:44:00,
2013-01-19 22:49:00,39.8,29.4,29.93,SSE,150,2.0,2.0,66,0.00,,CLR,0.00,VWS V14.01,2013-01-20 03:49:00,
2013-01-19 22:54:00,39.8,29.4,29.93,SSE,159,2.0,5.0,66,0.00,,CLR,0.00,VWS V14.01,2013-01-20 03:54:00,
2013-01-19 22:59:00,39.3,29.3,29.93,SE,142,2.0,5.0,67,0.00,,CLR,0.00,VWS V14.01,2013-01-20 03:59:00,
2013-01-19 23:04:00,38.6,29.0,29.92,SE,135,1.0,3.0,68,0.00,,CLR,0.00,VWS V14.01,2013-01-20 04:04:00,
2013-01-19 23:09:00,39.0,29.4,29.92,SSE,158,3.0,5.0,68,0.00,,CLR,0.00,VWS V14.01,2013-01-20 04:09:00,
2013-01-19 23:14:00,38.8,29.2,29.91,SE,139,4.0,4.0,68,0.00,,CLR,0.00,VWS V14.01,2013-01-20 04:14:00,
2013-01-19 23:19:00,38.5,29.2,29.91,SSE,158,4.0,6.0,69,0.00,,CLR,0.00,VWS V14.01,2013-01-20 04:19:00,
2013-01-19 23:25:00,39.0,29.4,29.91,SSE,162,6.0,6.0,68,0.00,,CLR,0.00,VWS V14.01,2013-01-20 04:25:00,
2013-01-19 23:30:00,39.2,29.5,29.90,SE,145,4.0,6.0,68,0.00,,CLR,0.00,VWS V14.01,2013-01-20 04:30:00,
2013-01-19 23:35:00,39.1,29.5,29.90,SSE,162,4.0,8.0,68,0.00,,CLR,0.00,VWS V14.01,2013-01-20 04:35:00,
2013-01-19 23:40:00,39.1,29.5,29.89,SE,143,6.0,6.0,68,0.00,,CLR,0.00,VWS V14.01,2013-01-20 04:40:00,
2013-01-19 23:45:00,39.0,29.4,29.89,SE,141,6.0,6.0,68,0.00,,CLR,0.00,VWS V14.01,2013-01-20 04:45:00,
2013-01-19 23:50:00,39.0,29.4,29.88,SSE,164,4.0,5.0,68,0.00,,CLR,0.00,VWS V14.01,2013-01-20 04:50:00,
2013-01-19 23:57:00,39.3,29.6,29.88,SSE,147,7.0,8.0,68,0.00,,CLR,0.00,VWS V14.01,2013-01-20 04:57:00,